User: anonymous   Login
Location: Kershaw
(34.5481°N, 80.5823°W)
Time: 13:10:06
(UTC+00:00)
Language:

Courier 1B - Orbit

View from above orbital plane
View from above orbital plane
View from above satellite
View from above satellite

Ground track
Ground track

The orbit data is extracted from the following two-line orbital elements,

1    58U 60013A   22271.12337193  .00000117  00000-0  48418-4 0  9994
2    58  28.3259 190.2439 0165055 123.0746 238.5763 13.46338552 51445
Epoch (UTC): 28 September 2022 02:57:39
Eccentricity: 0.0165055
inclination: 28.3259°
perigee height: 962 km
apogee height: 1209 km
right ascension of ascending node: 190.2439°
argument of perigee: 123.0746°
revolutions per day: 13.46338552
mean anomaly at epoch: 238.5763°
orbit number at epoch: 5144

The dashed part of the orbit path shows where the satellite is in the earth's shadow,  

DLR